FW4154 Weather Reports


Display with metric or nautical units.
time (UTC)temp
F
wind
direction
speed
MPH
gust
MPH
rain 1hr
in
rain 24hr
in
rain mn
in
humidity
%
barometer
mb
20260507064339 55 122 7.0 10.0 0.00 0.00 0.00 89 1000.2
20260507063353 55 141 5.0 10.0 0.00 0.00 0.00 89 1000.2
20260507062846 55 144 5.0 11.0 0.00 0.00 0.00 89 1000.2
20260507061857 55 146 6.0 10.0 0.00 0.00 0.00 89 1000.2
20260507060853 56 133 7.0 9.0 0.00 0.00 0.00 89 1000.2
20260507060347 56 155 6.0 9.0 0.00 0.00 0.00 88 1000.2
20260507055842 56 147 5.0 9.0 0.00 0.00 0.00 88 1000.2
20260507055341 56 131 5.0 9.0 0.00 0.00 0.00 88 1000.2
20260507054356 56 117 4.0 8.0 0.00 0.00 0.00 87 1000.2
20260507053354 56 133 3.0 7.0 0.00 0.00 0.00 87 1000.2
20260507052847 56 122 3.0 7.0 0.00 0.00 0.00 87 1000.2
20260507051858 56 143 3.0 5.0 0.00 0.00 0.00 86 1000.2
20260507050855 56 144 2.0 8.0 0.00 0.00 0.00 86 1000.2
20260507050338 56 124 3.0 9.0 0.00 0.00 0.00 86 1000.2
20260507045356 56 127 3.0 7.0 0.00 0.00 0.00 85 1000.2
20260507044352 57 111 1.0 8.0 0.00 0.00 0.00 85 1000.2
20260507043847 57 113 4.0 9.0 0.00 0.00 0.00 84 1000.2
20260507042845 57 134 4.0 9.0 0.00 0.00 0.00 84 1000.2
20260507041858 57 154 5.0 9.0 0.00 0.00 0.00 84 1000.2
20260507040852 57 157 6.0 8.0 0.00 0.00 0.00 87 1000.2
20260507035854 57 145 4.0 5.0 0.00 0.00 0.00 87 1000.2
20260507035356 56 232 0.0 0.0 0.00 0.00 0.00 85 1000.2
20260507034402 56 232 0.0 0.0 0.00 0.00 0.00 85 1000.2
20260507033852 57 232 0.0 0.0 0.00 0.00 0.00 86 1000.2
20260507033348 57 232 0.0 0.0 0.00 0.00 0.00 86 1000.2
20260507032357 57 232 0.0 0.0 0.00 0.00 0.00 84 1000.2
20260507031850 57 232 0.0 0.0 0.00 0.00 0.00 84 1000.2
20260507031350 57 232 0.0 0.0 0.00 0.00 0.00 84 1000.2
20260507030842 57 232 0.0 0.0 0.00 0.00 0.00 84 1000.2
20260507025907 57 169 0.0 0.0 0.00 0.00 0.00 83 1000.2
20260507025354 57 169 0.0 2.0 0.00 0.00 0.00 83 1000.2
20260507024336 57 169 1.0 3.0 0.00 0.00 0.00 82 1000.2
20260507023348 57 169 1.0 3.0 0.00 0.00 0.00 83 1000.2
20260507022845 57 169 0.0 4.0 0.00 0.00 0.00 82 1000.2
20260507021847 58 167 5.0 7.0 0.00 0.00 0.00 84 1000.2
20260507020856 57 159 4.0 7.0 0.00 0.00 0.00 84 1000.2
20260507015852 57 177 2.0 6.0 0.00 0.00 0.00 83 1000.2
20260507014858 57 186 4.0 6.0 0.00 0.00 0.00 84 1000.2
20260507013841 57 186 4.0 7.0 0.00 0.00 0.00 85 1000.2
20260507013045 57 197 5.0 8.0 0.00 0.00 0.00 85 1000.2
20260507011849 57 171 4.0 7.0 0.00 0.00 0.00 86 1000.2
20260507011338 57 174 5.0 8.0 0.00 0.00 0.00 85 1000.2
20260507010356 57 130 8.0 11.0 0.00 0.00 0.00 84 1000.2
20260507005851 57 143 5.0 9.0 0.00 0.00 0.00 84 1000.2
20260507005349 57 144 3.0 9.0 0.00 0.00 0.00 83 1000.2
20260507004357 57 144 6.0 10.0 0.00 0.00 0.00 85 1000.2
20260507003851 57 148 7.0 10.0 0.00 0.00 0.00 83 1000.2
20260507003348 57 142 7.0 11.0 0.00 0.00 0.00 84 1000.2
20260507002352 57 160 7.0 11.0 0.00 0.00 0.00 84 1000.2
20260507001348 57 144 7.0 12.0 0.00 0.00 0.00 84 1000.2
20260507000350 57 158 8.0 10.0 0.00 0.00 0.00 85 1000.2
20260506235844 57 186 9.0 10.0 0.00 0.00 0.00 84 1000.2
20260506235338 57 158 9.0 11.0 0.00 0.00 0.00 84 1000.2
20260506234347 57 198 8.0 11.0 0.00 0.00 0.00 84 1000.2
20260506233350 57 195 9.0 11.0 0.00 0.00 0.00 84 1000.2
20260506232847 57 184 9.0 11.0 0.00 0.00 0.00 83 1000.2
20260506231850 57 181 8.0 10.0 0.00 0.00 0.00 83 1000.2
20260506230352 57 220 8.0 13.0 0.00 0.00 0.00 81 1000.2
20260506225357 58 159 11.0 15.0 0.00 0.00 0.00 82 1000.2
20260506224844 58 163 9.0 17.0 0.00 0.00 0.00 82 1000.2
20260506223840 58 161 11.0 15.0 0.00 0.00 0.00 80 1000.2
20260506222859 58 153 10.0 16.0 0.00 0.00 0.00 80 1000.2
20260506222349 58 137 8.0 16.0 0.00 0.00 0.00 80 1000.2
20260506221348 58 157 10.0 15.0 0.00 0.00 0.00 80 1000.2
20260506220845 58 155 8.0 12.0 0.00 0.00 0.00 83 1000.2
20260506220344 58 176 10.0 11.0 0.00 0.00 0.00 82 1000.2
20260506215358 57 158 8.0 13.0 0.00 0.00 0.00 81 1000.2
20260506214355 57 153 10.0 15.0 0.00 0.00 0.00 82 1000.2
20260506213851 57 148 11.0 14.0 0.00 0.00 0.00 82 1000.2
20260506212900 57 155 12.0 16.0 0.00 0.00 0.00 82 1000.2
20260506212357 57 200 12.0 15.0 0.00 0.00 0.00 83 1000.2
20260506211342 58 177 9.0 13.0 0.00 0.00 0.00 83 1000.2
20260506210354 57 162 9.0 11.0 0.00 0.00 0.00 82 1000.2
20260506205344 57 156 10.0 12.0 0.00 0.00 0.00 83 1000.2
20260506204348 57 147 3.0 14.0 0.00 0.00 0.00 81 1000.2
20260506203840 57 127 7.0 14.0 0.00 0.00 0.00 84 1000.2
20260506202858 56 149 4.0 11.0 0.00 0.00 0.00 85 1000.2
20260506201854 56 123 3.0 8.0 0.00 0.00 0.00 85 1000.2
20260506200840 56 132 5.0 9.0 0.00 0.00 0.00 86 1000.2
20260506195845 56 125 5.0 8.0 0.00 0.00 0.00 86 1000.2
20260506194848 56 147 3.0 7.0 0.00 0.00 0.00 86 1000.2
20260506193849 55 168 5.0 7.0 0.00 0.00 0.00 86 1000.2
20260506192854 55 130 3.0 6.0 0.00 0.00 0.00 90 1000.2
20260506191851 55 103 4.0 9.0 0.00 0.00 0.00 90 1000.2
20260506190858 55 134 6.0 9.0 0.00 0.00 0.00 90 1000.2
20260506185857 55 149 7.0 12.0 0.00 0.00 0.00 91 1000.2
20260506185352 55 167 9.0 12.0 0.00 0.00 0.00 92 1000.2
20260506184849 55 178 10.0 13.0 0.00 0.00 0.00 92 1000.2
20260506183856 55 146 7.0 10.0 0.00 0.00 0.00 93 1000.2
20260506183216 55 156 7.0 10.0 0.00 0.00 0.00 91 1000.2
20260506153356 54 155 5.0 8.0 0.00 0.00 0.00 94 1000.2
20260506152854 54 160 3.0 7.0 0.00 0.00 0.00 93 1000.2
20260506152353 54 174 3.0 7.0 0.00 0.00 0.00 93 1000.2
20260506151412 54 211 5.0 8.0 0.00 0.00 0.00 93 1000.2
20260506150848 54 213 5.0 9.0 0.00 0.00 0.00 93 1000.2
20260506145918 54 192 7.0 9.0 0.00 0.00 0.00 93 1000.2
20260506145358 55 161 8.0 10.0 0.00 0.00 0.00 93 1000.2
20260506144400 55 170 7.0 11.0 0.00 0.00 0.00 92 1000.2
20260506143410 55 169 7.0 11.0 0.00 0.00 0.00 91 1000.2
20260506142411 55 171 7.0 11.0 0.00 0.00 0.00 92 1000.2
20260506141412 55 159 8.0 11.0 0.00 0.00 0.00 92 1000.2
20260506140901 55 170 7.0 11.0 0.00 0.00 0.00 92 1000.2
20260506140359 55 150 7.0 11.0 0.00 0.00 0.00 92 1000.2
20260506135410 55 209 6.0 8.0 0.00 0.00 0.00 91 1000.2
20260506134405 55 204 7.0 10.0 0.00 0.00 0.00 91 1000.2
20260506133857 55 196 6.0 9.0 0.00 0.00 0.00 91 1000.2
20260506132910 55 177 7.0 12.0 0.00 0.00 0.00 91 1000.2
20260506131856 55 153 6.0 10.0 0.00 0.00 0.00 91 1000.2
20260506130915 55 141 8.0 12.0 0.00 0.00 0.00 91 1000.2
20260506130359 55 145 8.0 11.0 0.00 0.00 0.00 91 1000.2
20260506125857 55 142 7.0 12.0 0.00 0.00 0.00 91 1000.2
20260506124857 55 134 9.0 12.0 0.00 0.00 0.00 91 1000.2
20260506123908 55 151 7.0 10.0 0.00 0.00 0.00 91 1000.2
20260506122910 55 162 6.0 9.0 0.00 0.00 0.00 90 1000.2
20260506121913 55 193 6.0 8.0 0.00 0.00 0.00 90 1000.2
20260506120859 55 198 6.0 9.0 0.00 0.00 0.00 90 1000.2
20260506120354 55 202 6.0 10.0 0.00 0.00 0.00 90 1000.2
20260506115412 55 181 8.0 10.0 0.00 0.00 0.00 91 1000.2
20260506114904 55 178 8.0 10.0 0.00 0.00 0.00 90 1000.2
20260506113904 55 188 6.0 10.0 0.00 0.00 0.00 91 1000.2
20260506112917 55 177 7.0 9.0 0.00 0.00 0.00 90 1000.2
20260506112359 55 178 7.0 11.0 0.00 0.00 0.00 91 1000.2
20260506111408 55 177 9.0 11.0 0.00 0.00 0.00 90 1000.2
20260506110409 55 207 9.0 12.0 0.00 0.00 0.00 91 1000.2
20260506105856 55 184 9.0 12.0 0.00 0.00 0.00 91 1000.2
20260506104902 55 188 8.0 11.0 0.00 0.00 0.00 91 1000.2
20260506104358 55 192 9.0 11.0 0.00 0.00 0.00 90 1000.2
20260506103857 55 190 7.0 10.0 0.00 0.00 0.00 90 1000.2
20260506102923 56 196 9.0 11.0 0.00 0.00 0.00 90 1000.2
20260506101913 56 204 9.0 11.0 0.00 0.00 0.00 90 1000.2
20260506100907 56 197 9.0 10.0 0.00 0.00 0.00 90 1000.2
20260506095854 56 219 8.0 10.0 0.00 0.00 0.00 90 1000.2
20260506094855 56 210 8.0 11.0 0.00 0.00 0.00 90 1000.2
20260506093909 56 189 7.0 9.0 0.00 0.00 0.00 91 1000.2
20260506093404 56 186 7.0 9.0 0.00 0.00 0.00 91 1000.2
20260506092904 55 202 5.0 9.0 0.00 0.00 0.00 91 1000.2
20260506092402 55 236 5.0 9.0 0.00 0.00 0.00 92 1000.2
20260506091859 55 192 6.0 8.0 0.00 0.00 0.00 93 1000.2
20260506090901 54 47 1.0 3.0 0.00 0.00 0.00 94 1000.2
20260506085906 54 44 0.0 1.0 0.00 0.00 0.00 95 1000.2
20260506085357 53 44 0.0 1.0 0.00 0.00 0.00 94 1000.2
20260506084415 53 44 0.0 2.0 0.00 0.00 0.00 95 1000.2
20260506083401 53 44 0.0 2.0 0.00 0.00 0.00 94 1000.2
20260506082410 53 44 0.0 2.0 0.00 0.00 0.00 94 1000.2
20260506081905 53 44 0.0 2.0 0.00 0.00 0.00 94 1000.2
20260506081359 53 44 1.0 2.0 0.00 0.00 0.00 93 1000.2
20260506080405 54 44 0.0 2.0 0.00 0.00 0.00 93 1000.2
20260506073405 54 44 2.0 4.0 0.00 0.00 0.00 93 1000.2
20260506072409 54 228 0.0 2.0 0.00 0.00 0.00 93 1000.2
20260506071412 54 229 0.0 2.0 0.00 0.00 0.00 93 1000.2
20260506070856 54 228 0.0 2.0 0.00 0.00 0.00 93 1000.2